Weather History for Doha, Qatar

Change the Weather History Date:

Tuesday, February 7, 2012

  Actual Average Record
Temperature  
Mean Temperature 64 °F -  
Max Temperature 71 °F 75 °F 80 °F (1998)
Min Temperature 58 °F 58 °F 53 °F (1997)
Growing Degree Days 14 (Base 50)    
Moisture  
Dew Point 52 °F    
Average Humidity 65    
Maximum Humidity 88    
Minimum Humidity 41    
Precipitation  
Precipitation 0.00 in 0.02 in - ()
Sea Level Pressure  
Sea Level Pressure 30.21 in    
Wind  
Wind Speed 6 mph ()    
Max Wind Speed 12 mph    
Max Gust Speed -    
Visibility 6.5 miles    
Events      
Averages and records for this station are not official NWS values.
T = Trace of Precipitation, MM = Missing Value Source: Averaged Metar Reports

Daily Weather History Graph

Daily Weather History Graph

Search for Another Location

Airport:

Trip Planner

Search our weather history database for the weather conditions in past years. The results will help you decide how hot, cold, wet, or windy it might be!

Date:

Astronomy

Feb. 07, 2012 Rise Set
Actual Time 6:14 AM AST 5:21 PM AST
Civil Twilight 5:50 AM AST 5:45 PM AST
Nautical Twilight 5:23 AM AST 6:12 PM AST
Astronomical Twilight 4:56 AM AST 6:39 PM AST
Moon 5:02 PM AST (2/7) 5:29 AM AST (2/7)
Length of Visible Light 11h 55m
Length of Day
11h 07m
Full, 100% of the Moon is Illuminated
Feb 7
Full
Feb 8
Full
Feb 14
Last Quarter
Feb 22
New
Mar 1
First Quarter

Hourly Weather History & Observations

Time (AST) Temp. Dew Point Humidity Pressure Visibility Wind Dir Wind Speed Gust Speed Precip Events Conditions
12:00 AM 62.6 °F 55.4 °F 77% 30.21 in - North 5.8 mph - N/A   Clear
12:30 AM 62.6 °F 55.4 °F 77% 30.21 in - North 6.9 mph - N/A   Clear
1:00 AM 60.8 °F 55.4 °F 82% 30.21 in - North 4.6 mph - N/A   Clear
1:30 AM 62.6 °F 55.4 °F 77% 30.21 in - North 5.8 mph - N/A   Clear
2:00 AM 60.8 °F 55.4 °F 82% 30.21 in - North - - N/A   Clear
2:30 AM 62.6 °F 53.6 °F 72% 30.21 in - North 6.9 mph - N/A   Clear
3:00 AM 60 °F 54 °F 76% 30.24 in 9 mi North 4.6 mph - -  
3:00 AM 59.0 °F 55.4 °F 88% 30.21 in - North 4.6 mph - N/A   Clear
3:30 AM 59.0 °F 53.6 °F 82% 30.21 in - North 4.6 mph - N/A   Clear
4:00 AM 59.0 °F 55.4 °F 88% 30.21 in - NNW 4.6 mph - N/A   Clear
4:30 AM 59.0 °F 53.6 °F 82% 30.21 in - North 3.5 mph - N/A   Clear
5:00 AM 59.0 °F 53.6 °F 82% 30.21 in - NNW 3.5 mph - N/A   Clear
5:30 AM 59.0 °F 55.4 °F 88% 30.21 in - North 3.5 mph - N/A   Clear
6:00 AM 59.0 °F 55.4 °F 88% 30.21 in - NNW 3.5 mph - N/A   Clear
6:30 AM 60.8 °F 53.6 °F 77% 30.21 in - NNW 3.5 mph - N/A   Clear
7:00 AM 59.0 °F 53.6 °F 82% 30.24 in - NNW 4.6 mph - N/A   Clear
7:30 AM 62.6 °F 53.6 °F 72% 30.24 in - North 4.6 mph - N/A   Clear
8:00 AM 64.4 °F 55.4 °F 73% 30.24 in - North 4.6 mph - N/A   Clear
8:30 AM 64.4 °F 53.6 °F 68% 30.24 in - North 5.8 mph - N/A   Clear
9:00 AM 67 °F 54 °F 53% 30.27 in 7 mi NNE 6.9 mph - -   Clear
9:00 AM 66.2 °F 53.6 °F 64% 30.27 in - NNE 6.9 mph - N/A   Clear
9:30 AM 68.0 °F 51.8 °F 56% 30.27 in - NNE 8.1 mph - N/A   Clear
10:00 AM 69.8 °F 50.0 °F 49% 30.24 in - NE 9.2 mph - N/A   Clear
10:30 AM 69.8 °F 46.4 °F 43% 30.24 in 6.2 mi NE 9.2 mph - N/A   Scattered Clouds
11:00 AM 69.8 °F 46.4 °F 43% 30.24 in 6.2 mi NNE 9.2 mph - N/A   Mostly Cloudy
11:30 AM 69.8 °F 46.4 °F 43% 30.24 in 6.2 mi NE 10.4 mph - N/A   Mostly Cloudy
12:00 PM 71.6 °F 46.4 °F 41% 30.21 in 6.2 mi ENE 10.4 mph - N/A   Scattered Clouds
12:30 PM 71.6 °F 48.2 °F 43% 30.21 in 6.2 mi East 10.4 mph - N/A   Scattered Clouds
1:00 PM 71.6 °F 48.2 °F 43% 30.21 in 6.2 mi ENE 9.2 mph - N/A   Scattered Clouds
1:30 PM 69.8 °F 48.2 °F 46% 30.18 in 6.2 mi East 10.4 mph - N/A   Scattered Clouds
2:00 PM 69.8 °F 48.2 °F 46% 30.18 in 6.2 mi NE 10.4 mph - N/A   Scattered Clouds
2:30 PM 69.8 °F 48.2 °F 46% 30.15 in 6.2 mi East 11.5 mph - N/A   Scattered Clouds
3:00 PM 69.8 °F 50.0 °F 49% 30.18 in 6.2 mi ENE 11.5 mph - N/A   Scattered Clouds
3:30 PM 69.8 °F 46.4 °F 43% 30.18 in 6.2 mi ENE 10.4 mph - N/A   Mostly Cloudy
4:00 PM 68.0 °F 44.6 °F 43% 30.18 in 6.2 mi ENE 9.2 mph - N/A   Mostly Cloudy
4:30 PM 68.0 °F 46.4 °F 46% 30.18 in 6.2 mi NE 9.2 mph - N/A   Mostly Cloudy
5:00 PM 68.0 °F 46.4 °F 46% 30.18 in - NE 8.1 mph - N/A   Clear
5:30 PM 68.0 °F 46.4 °F 46% 30.18 in - ENE 5.8 mph - N/A   Clear
6:00 PM 66.2 °F 48.2 °F 52% 30.18 in - East 5.8 mph - N/A   Clear
6:30 PM 66.2 °F 51.8 °F 60% 30.18 in - ENE 4.6 mph - N/A   Clear
7:00 PM 66.2 °F 51.8 °F 60% 30.18 in - East 4.6 mph - N/A   Clear
7:30 PM 64.4 °F 53.6 °F 68% 30.18 in - East 3.5 mph - N/A   Clear
8:00 PM 64.4 °F 53.6 °F 68% 30.21 in - East 3.5 mph - N/A   Clear
8:30 PM 64.4 °F 53.6 °F 68% 30.21 in - East 3.5 mph - N/A   Clear
9:00 PM 64 °F 55 °F 65% 30.21 in 7 mi East 3.5 mph - -   Clear
9:00 PM 64.4 °F 55.4 °F 73% 30.21 in - East 3.5 mph - N/A   Clear
9:30 PM 64.4 °F 55.4 °F 73% 30.21 in - East 3.5 mph - N/A   Clear
10:00 PM 62.6 °F 55.4 °F 77% 30.21 in - East 2.3 mph - N/A   Clear
10:30 PM 62.6 °F 55.4 °F 77% 30.18 in - East 3.5 mph - N/A   Clear
11:00 PM 62.6 °F 57.2 °F 82% 30.18 in - East 3.5 mph - N/A   Clear
11:30 PM 62.6 °F 57.2 °F 82% 30.21 in - East 3.5 mph - N/A   Clear